Regional Weather Roundup
Issued by NWS Wakefield, VA

Home | Current Version | Previous Version | Graphics & Text | Print | Product List | Glossary On
Versions: 1 2 3 4 5 6 7 8 9 10 11 12 13 14 15 16 17 18 19 20 21 22 23 24 25 26 27 28 29 30 31 32 33 34 35 36 37 38 39 40 41 42 43 44 45 46 47 48 49 50
000
ASUS41 KAKQ 160810
RWRAKQ

REGIONAL WEATHER ROUNDUP
NATIONAL WEATHER SERVICE WAKEFIELD VA
400 AM EDT TUE SEP 16 2014

Note: "fair" indicates few or no clouds below 12,000 feet with no
significant weather and/or obstructions to visibility. * = Denotes
station may not report precipitation (e.g., rain,snow,etc.),
thunder or fog.

VAZ042-051-052>054-056-160900-
NORTHERN VIRGINIA

CITY           SKY/WX    TMP DP  RH WIND       PRES   REMARKS
WASH NATIONAL  CLOUDY    68  61  78 W3        30.01F
DULLES         MOCLDY    60  59  96 CALM      30.01F
FORT BELVOIR   CLOUDY    64  62  93 W1        30.01S
QUANTICO       CLOUDY    66  61  84 SW5       30.01F
FREDERICKSBRG* CLOUDY    66  63  90 CALM      30.00F
STAFFORD*      MOCLDY    62  62 100 CALM      30.04F
WARRENTON      PTCLDY    61  61 100 CALM      30.01S FOG
CULPEPER*      PTCLDY   N/A N/A N/A CALM      30.02S
MANASSAS*      MOCLDY    63  63 100 N3        30.01S
LEESBURG*      PTCLDY    59  59 100 CALM      30.02S
WINCHESTER     PTCLDY    55  54  94 CALM      30.02F
FRONT ROYAL*   PTSUNNY   57  55  94 CALM      30.02S
LURAY*         PTSUNNY   59  59 100 CALM      30.03S
$$

VAZ048-049-060>072-079>083-160900-
CENTRAL AND SOUTH CENTRAL VIRGINIA...AND NORTH CENTRAL NORTH CAROLINA

CITY           SKY/WX    TMP DP  RH WIND       PRES   REMARKS
RICHMOND       MOCLDY    66  63  90 S3        30.02F
CHESTERFIELD*  CLOUDY   N/A N/A N/A S3        30.03F
PETERSBURG*    PTCLDY    63  62  96 CALM      30.03F FOG
HANOVER        MOCLDY    68  64  87 S7        30.03F
TAPPAHANNOCK*  CLOUDY    66  62  87 S5        30.02F
CHARLOTTSVILLE PTCLDY    64  62  93 SW6       30.02S
ORANGE*        PTCLDY    61  59  94 S6        30.03S
LOUISA*        PTCLDY    64  63  94 CALM      30.01S FOG
FARMVILLE*     MOCLDY    64  63  94 CALM      30.00F FOG
CREWE*         PTSUNNY   69  66  91 CALM      30.03S
FORT PICKETT*  CLOUDY    65  64  97 SW5       30.03F
LUNENBURG*     PTSUNNY   65  65  99 CALM      30.04S
SOUTH HILL*    PTCLDY    66  66 100 S3        30.09F FOG
LAWRENCEVILLE* MOSUNNY   62  62  99 CALM      30.03F
ROANOKE RAPIDS MOSUNNY   64  63  94 CALM      30.04F
RALEIGH        MOCLDY    68  65  90 SW5       30.04F
$$

VAZ088>098-160900-
SOUTHEAST VIRGINIA

CITY           SKY/WX    TMP DP  RH WIND       PRES   REMARKS
NORFOLK        CLOUDY    67  61  81 S5        30.04S
VIRGINIA BEACH CLOUDY    67  61  81 SW6       30.04S
NORFOLK NAVAL  CLOUDY    69  62  78 VRB3      30.05F
WEST POINT*    NOT AVBL
NEWPORT NEWS   CLOUDY    71  63  75 SW5       30.04F
LANGLEY AFB    CLOUDY    68  64  86 S3        30.03F
FORT EUSTIS    CLOUDY    68  68 100 S7        30.03S
WILLIAMSBURG*  CLOUDY    70  64  83 S3        30.05F
HR EXEC AP*    CLOUDY    64  61  88 CALM      30.06S
FRANKLIN*        N/A     66  64  94 S5        30.04F
WAKEFIELD      MOCLDY    66  63  90 S3        30.04F
$$

VAZ020-022-025-037-045-160900-
WEST CENTRAL AND SOUTHWEST VIRGINIA

CITY           SKY/WX    TMP DP  RH WIND       PRES   REMARKS
STAUNTON*      PTCLDY    59  57  92 CALM      30.05F FOG
HOT SPRINGS VA CLOUDY    55  44  66 W17G32    30.12F
LYNCHBURG      PTCLDY    61  61 100 SW3       30.05S
DANVILLE       PTCLDY    65  63  93 S5        30.03F FOG
SOUTH BOSTON*  NOT AVBL
MARTINSVILLE   PTCLDY    65  65 100 SW5       30.06F
ROANOKE        CLEAR     64  60  87 N6        30.07S
BLACKSBURG     CLEAR     61  61 100 CALM      30.11S FOG
DUBLIN*        CLEAR     61  61 100 CALM      30.12R
MARION*        CLOUDY    63  61  93 SW6       30.16S
HILLSVILLE*    PTCLDY    59  58  99 CALM      30.11F
RICHLANDS*     CLOUDY    65  63  94 W3        30.14S FOG
WISE*          CLOUDY    63  63 100 SW12      30.14F
ABINGDON*      CLOUDY    65  65 100 NW3       30.12F FOG
$$

MDZ021>025-VAZ099-100-160900-
SOUTHERN MARYLAND AND THE DELMARVA PENINSULA

CITY           SKY/WX    TMP DP  RH WIND       PRES   REMARKS
PATUXENT RIVER LGT RAIN  66  62  87 S6        30.01F
BAY BRIDGE APT   N/A     68  61  77 S6        30.00F
LEONARDTOWN    CLOUDY    64  61  88 SW3       30.03F
DOVER          MOCLDY    59  57  91 SE7       30.00F
GEORGETOWN     MOCLDY    60  55  83 CALM      30.04F
EASTON         MOCLDY    63  63 100 CALM      30.05F
CAMBRIDGE      MOCLDY    61  59  94 CALM      30.01F
SALISBURY        N/A    N/A N/A N/A MISG        N/A
OCEAN CITY     CLOUDY    64  59  83 CALM      30.04F
WALLOPS ISLAND LGT RAIN  67  63  87 SW7       30.04F
ACCOMACK*      CLOUDY    64  61  88 S5        30.04F
$$

NCZ012>017-030>032-160900-
EASTERN NORTH CAROLINA

CITY           SKY/WX    TMP DP  RH WIND       PRES   REMARKS
ELIZABETH CITY CLOUDY    68  64  87 S3        30.04F
AHOSKIE*       CLOUDY    65  64  95 CALM      30.05F
EDENTON*       CLOUDY    71  65  83 S6        30.05F
CURRITUCK*     CLOUDY    68  63  83 CALM      30.05F
KILL DEVIL HLS CLOUDY    70  63  78 SW3       30.03F
MANTEO         CLOUDY    71  64  78 S3        30.04F
CAPE HATTERAS  CLOUDY    67  65  93 N3        30.04F
TARBORO*       CLOUDY    67  65  93 CALM      30.05F
GOLDSBORO      CLOUDY    69  68  98 CALM      30.04F
WASHINGTON     CLOUDY    68  66  93 S3        30.05F
GREENVILLE     CLOUDY    68  68 100 SW5       30.06F
NEW BERN       CLOUDY    70  67  90 CALM      30.07S
WILMINGTON     CLOUDY    72  69  90 CALM      30.04F
$$

VAZ048-160900-
ELSEWHERE

CITY           SKY/WX    TMP DP  RH WIND       PRES   REMARKS
HARRISBURG PA  MOCLDY    58  52  80 CALM      30.00F
BALTIMORE      MOCLDY    61  59  93 W3        30.00F
ANNAPOLIS      CLOUDY    66  61  84 S3        29.99F
ANDREWS AFB    CLOUDY    64  62  93 SW5       30.00F
WILMINGTON DE  CLOUDY    63  59  87 S5        30.02F
PHILADELPHIA   CLOUDY    62  55  77 E7        30.02F
WILDWOOD NJ*   MOCLDY    59  54  82 CALM      30.05F
ATLANTIC CITY  MOCLDY    56  54  93 CALM      30.04F
HENDERSON NC   MOCLDY    66  64  94 SW5       30.04F FOG
GREENSBORO     CLOUDY    68  66  93 W7        30.05F
ROCKY MOUNT    CLOUDY    66  65  96 CALM      30.04F FOG
FAYETTEVILLE   CLOUDY    71  69  93 W3        30.05F
CHARLOTTE      CLOUDY    70  68  93 VRB3      30.07F FOG
$$

VAZ100-160900-
MARINE

STATION/POSITION TIME  TEMP    WIND        PRES    WAVE   SWELL
                       AIR SEA DIR/SP/G            HT/PER HT/PER
                 (UTC) (F)     (DEG/KT/KT) (MB)    (FT/S) (FT/S)
44066 TX TWR #4  0800   67 73  300/  4/  6 1017.2F   2/13   2/13
CAPE MAY NJ      0800   67 75  190/  6/  8 1016.6F
LEWES DE         0800   63 72  180/  4/  5 1016.7F
15NM E FENWICK I 0800   69 72              1017.4S   2/12
OCEAN-CITY-INLET 0800   69 72  200/  7/  8 1016.9F
WACHAPREAGUE VA  0800   68 74  240/  4/  7 1017.3F
THOMAS POINT MD  0800   68 74  190/ 11/ 13 1016.6F
GOOSES REEF MD   0800   69     210/ 12/ 14 1016.5F
COVE POINT MD    0800   67     220/ 11/ 13 1016.0F
SOLOMONS ISLAND  0800      76                N/A
BISHOPS HEAD MD  0800   70 72  210/ 12/ 13 1016.2F
PINEY POINT MD   0800          220/ 15/ 16   N/A
POTOMAC MD       0800   69     220/ 10/ 14 1016.0S
CAMBRIDGE MD     0800   65 75  120/  3/  5 1016.0F
LEWISETTA VA     0800   67 73  220/ 10/ 12 1016.0F
RAPPAHANNOCK LGT 0800          220/ 15/ 16 1017.5S
STINGRAY PT      0800   70     220/ 10/ 14   N/A
YORK RVR RNG VA  0800   70     240/ 10/ 12 1016.8S
YORKTOWN VA      0800   68 77  200/  4/  5 1016.8F
JAMESTOWN VA     0800   68     220/  6/  8   N/A
DOMINION TERM VA 0800   69     220/ 11/ 12 1017.3R
KIPTOPEKE VA     0800      78  220/ 12/ 15   N/A
CHES BAY BRIDGE  0800   69 76  200/ 12/ 16 1016.8S
CAPE HENRY VA    0800   67     200/  6/  8 1016.3S
CHESAPEAKE LGHT  0700   71     210/ 14/ 16 1017.7F
WILLOUBY STN VA  0800   69     220/  6/ 10 1016.0S
S CRANEY ISL VA  0800          170/  6/  9 1017.0S
CAPE HENRY BUOY  0800      76                N/A     2/13
1ST LANDING BUOY 0800   70     210/ 12/ 14 1017.0S
CAPE CHARLES BUO 0800      75                N/A     2/13   2/13
OFFSHORE WE BUOY 0800      74                N/A     2/ 7   2/ 7
64NM E OF VA BCH 0800   73 79  200/  8/ 10 1016.8F   2/ 7   2/ 7
DUCK PIER NC     0800   72 76  220/  8/  9 1016.8R
44100 DUCK FRF   0800      74                N/A     2/ 7
44056 DUCK FRF   0800                        N/A     2/ 8
OREGON INLET NC  0800   71 74  140/  3/  3 1017.4F
HATTERAS NC      0800   73 77   CALM  /  3 1017.8F
DIAMOND SHLS NC  0800   74     310/  4/  6 1017.1F   3/ 8   2/ 8
CAPE LOOKOUT NC  0700   75     130/  6/  6 1017.5F
$$


USA.gov is the U.S. government's official web portal to all federal, state and local government web resources and services.